VLG83XP LIRF-LEVC

Flight info

Callsign VLG83XP
Flight time N/A
Altitude 33000
Route ESINO DCT ABIDU DCT GOKMI DCT SUPUX DCT KUPIM DCT SUXER DCT RIPAL DCT MORSS DCT MHN DCT CDP N733 ARGOR
Aircraft A321/M-SDE3FGHIRWY/LB1

Departure

Time N/A
Airport Rome–Fiumicino Leonardo da Vinci International Airport (LIRF)

Arrival

Time 2026-04-30 13:34
Airport Valencia Airport (LEVC)
Time Latitude Longitude Altitude Speed Heading
2026-04-30 13:16 39.54851 -0.03820 10259 ft 305 kts 273°
2026-04-30 13:16 39.55002 -0.06492 10138 ft 290 kts 273°
2026-04-30 13:17 39.55285 -0.11579 9384 ft 282 kts 273°
2026-04-30 13:17 39.55423 -0.14087 9050 ft 276 kts 273°
2026-04-30 13:17 39.55695 -0.19017 8197 ft 273 kts 273°
2026-04-30 13:18 39.55830 -0.21461 7856 ft 268 kts 273°
2026-04-30 13:18 39.56085 -0.26046 7579 ft 245 kts 273°
2026-04-30 13:18 39.56207 -0.28226 7256 ft 242 kts 273°
2026-04-30 13:19 39.56218 -0.28429 7221 ft 242 kts 273°
2026-04-30 13:19 39.56341 -0.30608 6908 ft 241 kts 273°
2026-04-30 13:19 39.56458 -0.32778 6588 ft 242 kts 273°
2026-04-30 13:19 39.56574 -0.34958 6293 ft 242 kts 273°
2026-04-30 13:20 39.56687 -0.37128 5952 ft 242 kts 273°
2026-04-30 13:20 39.56798 -0.39297 5617 ft 242 kts 273°
2026-04-30 13:20 39.56908 -0.41474 5315 ft 241 kts 273°
2026-04-30 13:20 39.57017 -0.43637 5062 ft 239 kts 273°
2026-04-30 13:21 39.57123 -0.45761 4994 ft 237 kts 273°
2026-04-30 13:21 39.57226 -0.47869 4992 ft 229 kts 273°
2026-04-30 13:21 39.57322 -0.49869 5000 ft 219 kts 273°
2026-04-30 13:22 39.57510 -0.53840 4991 ft 217 kts 273°
2026-04-30 13:22 39.57604 -0.55724 4938 ft 204 kts 273°
2026-04-30 13:22 39.57787 -0.59253 4573 ft 194 kts 273°
2026-04-30 13:23 39.57878 -0.61004 4298 ft 195 kts 273°
2026-04-30 13:23 39.57402 -0.64300 4034 ft 189 kts 219°
2026-04-30 13:24 39.54874 -0.64999 4646 ft 199 kts 170°
2026-04-30 13:24 39.53500 -0.62332 4455 ft 187 kts 98°
2026-04-30 13:25 39.53036 -0.59242 4460 ft 174 kts 105°
2026-04-30 13:25 39.51286 -0.57398 4462 ft 195 kts 185°
2026-04-30 13:26 39.49450 -0.61363 4103 ft 202 kts 295°
2026-04-30 13:26 39.50758 -0.64620 3991 ft 203 kts 298°
2026-04-30 13:27 39.52001 -0.67975 3985 ft 205 kts 294°
2026-04-30 13:28 39.53803 -0.73041 4000 ft 205 kts 294°
2026-04-30 13:28 39.55147 -0.76319 3988 ft 207 kts 317°
2026-04-30 13:28 39.56416 -0.77134 3992 ft 204 kts 355°
2026-04-30 13:29 39.58417 -0.75289 4001 ft 195 kts 83°
2026-04-30 13:29 39.57806 -0.71984 3990 ft 191 kts 117°
2026-04-30 13:30 39.56148 -0.67213 3104 ft 188 kts 116°
2026-04-30 13:31 39.55033 -0.64228 2650 ft 181 kts 116°
2026-04-30 13:31 39.53478 -0.60138 1958 ft 152 kts 115°
2026-04-30 13:32 39.52610 -0.57846 1589 ft 132 kts 116°
2026-04-30 13:32 39.51755 -0.55601 1239 ft 146 kts 116°
2026-04-30 13:33 39.50956 -0.53412 896 ft 136 kts 116°
2026-04-30 13:33 39.50097 -0.51180 515 ft 141 kts 115°
2026-04-30 13:34 39.49660 -0.50055 301 ft 138 kts 116°
2026-04-30 13:34 39.48986 -0.48085 209 ft 22 kts 78°
2026-04-30 13:35 39.49021 -0.47885 217 ft 14 kts 77°
2026-04-30 13:35 39.49034 -0.47806 210 ft 9 kts 77°
2026-04-30 13:36 39.49042 -0.47589 204 ft 7 kts 104°
2026-04-30 13:36 39.49071 -0.47518 209 ft 11 kts 47°
2026-04-30 13:36 39.49102 -0.47475 203 ft 0 kts 47°